Regional Weather Roundup
Issued by NWS

Home | Current Version | Previous Version | Graphics & Text | Print | Product List | Glossary On
Versions: 1 2 3 4 5 6 7 8 9 10 11 12 13 14 15 16 17 18 19 20 21 22 23 24 25 26 27 28 29 30 31 32 33 34 35 36 37 38 39 40 41 42 43 44 45 46 47 48 49 50
000
ASUS43 KLSX 081807
RWRMO

WEATHER SUMMARY FOR MISSOURI
NATIONAL WEATHER SERVICE SPRINGFIELD MO
1200 PM CST THU DEC 08 2016

NOTE: "FAIR" INDICATES FEW OR NO CLOUDS BELOW 12,000 FEET WITH NO
       SIGNIFICANT WEATHER AND/OR OBSTRUCTIONS TO VISIBILITY.
       CURRENT SKY AND/OR WEATHER CONDITIONS ARE NOT AVAILABLE FOR
       CHILLICOTHE AND FARMINGTON.

MOZ001>031-035>038-043-044-053-054-081900-
...NORTHERN AND WESTERN MISSOURI...

CITY           SKY/WX    TMP DP  RH WIND       PRES   REMARKS
KANSAS CTY INT MOSUNNY   22   9  57 NW14G21   30.61F WCI   9
6HR MIN TEMP:  14; 6HR MAX TEMP:  22;

KANSAS C DTWN  SUNNY     23  10  57 NW10      30.63F WCI  12
6HR MIN TEMP:  16; 6HR MAX TEMP:  23;

LEE`S SUMMIT   SUNNY     22  10  60 NW15G21   30.60F WCI   9
6HR MIN TEMP:  15; 6HR MAX TEMP:  22;

ST JOSEPH      SUNNY     22   8  55 NW14G23   30.63F WCI   9
6HR MIN TEMP:  14; 6HR MAX TEMP:  22;

CHILLICOTHE      N/A     24  10  55 NW14G21   30.59F WCI  12
6HR MIN TEMP:  15; 6HR MAX TEMP:  24; 6HR PCP:  0.04;

KIRKSVILLE     MOSUNNY   22   9  57 NW14      30.51F WCI   9
6HR MIN TEMP:  14; 6HR MAX TEMP:  22;


$$
MOZ066>068-077>081-088>096-101>105-081900-
...SOUTHWEST MISSOURI...

CITY           SKY/WX    TMP DP  RH WIND       PRES   REMARKS
SPRINGFIELD    SUNNY     26  12  55 N14       30.56F WCI  14
6HR MIN TEMP:  17; 6HR MAX TEMP:  26;

JOPLIN         SUNNY     26  12  55 NW13      30.64F WCI  15
6HR MIN TEMP:  16; 6HR MAX TEMP:  27;

BRANSON        PTSUNNY   25   9  50 NW10G16   30.57F WCI  15

$$
MOZ032>034-039>042-045>050-055>058-069>072-081900-
...CENTRAL MISSOURI...

CITY           SKY/WX    TMP DP  RH WIND       PRES   REMARKS
COLUMBIA       SUNNY     25  10  53 W15G22    30.54F WCI  13
6HR MIN TEMP:  17; 6HR MAX TEMP:  25;

JEFFERSON CITY SUNNY     24  10  55 NW15      30.57F WCI  11
6HR MIN TEMP:  18; 6HR MAX TEMP:  25;

ROLLA          SUNNY     25  12  58 W17       30.50F WCI  12
6HR MIN TEMP:  17; 6HR MAX TEMP:  25; 6HR PCP: TRACE;

SEDALIA        MOSUNNY   24  13  62 W10G21    30.59F WCI  14
6HR MIN TEMP:  17; 6HR MAX TEMP:  25;

WHITEMAN AFB   MOSUNNY   24  12  59 NW12      30.59F WCI  13
WARRENSBURG    SUNNY     25  12  58 W10       30.61F WCI  15
OSAGE BEACH    SUNNY     28  14  55 VRB7G17   30.57F WCI  21

$$
MOZ051-052-059>065-081900-
...EAST CENTRAL MISSOURI...

CITY           SKY/WX    TMP DP  RH WIND       PRES   REMARKS
ST LOUIS INTL  MOSUNNY   29  11  47 W17G26    30.50F WCI  17
6HR MIN TEMP:  21; 6HR MAX TEMP:  29;

SPIRIT OF STL  MOSUNNY   28  12  51 NW13G22   30.51F WCI  17
6HR MIN TEMP:  20; 6HR MAX TEMP:  28;

ST CHARLES     MOSUNNY   27  12  53 W13G24    30.50F WCI  16
6HR MIN TEMP:  21; 6HR MAX TEMP:  27;


$$
MOZ072>076-082>087-097>100-106>115-081900-
...SOUTH CENTRAL AND SOUTHEAST MISSOURI...

CITY           SKY/WX    TMP DP  RH WIND       PRES   REMARKS
CAPE GIRARDEAU SUNNY     33  13  43 NW12      30.50F WCI  24
6HR MIN TEMP:  23; 6HR MAX TEMP:  33;

FARMINGTON     SUNNY     29  14  53 NW10      30.48F WCI  20
6HR MIN TEMP:  19; 6HR MAX TEMP:  29;

POPLAR BLUFF   CLOUDY    32  12  43 NW15      30.52F WCI  22
6HR MIN TEMP:  25; 6HR MAX TEMP:  32;

WEST PLAINS    SUNNY     30  11  45 NW13      30.53F WCI  20
6HR MIN TEMP:  20; 6HR MAX TEMP:  30;


$$



USA.gov is the U.S. government's official web portal to all federal, state and local government web resources and services.